Time,TemperatureF,DewpointF,PressureIn,WindDirection,WindDirectionDegrees,WindSpeedMPH,WindSpeedGustMPH,Humidity,HourlyPrecipIn,Conditions,Clouds,dailyrainin,SolarRadiationWatts/m^2,SoftwareType,DateUTC
2013-01-31 00:04:00,46.4,41.5,30.27,WSW,248,0.0,0.0,83,0.00,CLR,,0.00,0.0,WeatherDisplay:10.37,2013-01-31 08:04:00,
2013-01-31 00:09:00,46.4,41.5,30.26,WSW,248,0.0,0.0,83,0.00,CLR,,0.00,0.0,WeatherDisplay:10.37,2013-01-31 08:09:00,
2013-01-31 00:14:00,46.6,41.7,30.26,WSW,248,0.0,0.0,83,0.00,CLR,,0.00,0.0,WeatherDisplay:10.37,2013-01-31 08:14:00,
2013-01-31 00:19:00,46.6,41.7,30.26,WSW,248,0.0,0.0,83,0.00,CLR,,0.00,0.0,WeatherDisplay:10.37,2013-01-31 08:19:00,
2013-01-31 00:24:00,46.4,41.5,30.26,WSW,248,0.0,0.0,83,0.00,CLR,,0.00,0.0,WeatherDisplay:10.37,2013-01-31 08:24:00,
2013-01-31 00:29:00,46.4,41.5,30.26,WSW,248,0.0,0.0,83,0.00,CLR,,0.00,0.0,WeatherDisplay:10.37,2013-01-31 08:29:00,
2013-01-31 00:34:00,46.4,41.5,30.26,WSW,248,0.0,0.0,83,0.00,CLR,,0.00,0.0,WeatherDisplay:10.37,2013-01-31 08:34:00,
2013-01-31 00:39:00,46.2,41.3,30.26,WSW,248,0.0,0.0,83,0.00,CLR,,0.00,0.0,WeatherDisplay:10.37,2013-01-31 08:39:00,
2013-01-31 00:44:00,46.2,41.3,30.26,WSW,248,0.0,0.0,83,0.00,CLR,,0.00,0.0,WeatherDisplay:10.37,2013-01-31 08:44:00,
2013-01-31 00:49:00,46.2,41.3,30.26,WSW,248,0.0,0.0,83,0.00,CLR,,0.00,0.0,WeatherDisplay:10.37,2013-01-31 08:49:00,
2013-01-31 00:54:00,46.4,41.5,30.26,WSW,248,0.0,0.0,83,0.00,CLR,,0.00,0.0,WeatherDisplay:10.37,2013-01-31 08:54:00,
2013-01-31 01:00:00,46.4,41.5,30.26,WSW,248,0.0,0.0,83,0.00,CLR,,0.00,0.0,WeatherDisplay:10.37,2013-01-31 09:00:00,
2013-01-31 01:05:00,46.4,41.2,30.26,WSW,248,0.0,0.0,82,0.00,CLR,,0.00,0.0,WeatherDisplay:10.37,2013-01-31 09:05:00,
2013-01-31 01:10:00,46.4,41.5,30.26,WSW,248,0.0,0.0,83,0.00,CLR,,0.00,0.0,WeatherDisplay:10.37,2013-01-31 09:10:00,
2013-01-31 01:15:00,46.4,41.2,30.26,WSW,248,0.0,0.0,82,0.00,CLR,,0.00,0.0,WeatherDisplay:10.37,2013-01-31 09:15:00,
2013-01-31 01:20:00,46.4,41.2,30.26,WSW,248,0.0,0.0,82,0.00,CLR,,0.00,0.0,WeatherDisplay:10.37,2013-01-31 09:20:00,
2013-01-31 01:25:00,46.4,41.2,30.26,WSW,248,0.0,0.0,82,0.00,CLR,,0.00,0.0,WeatherDisplay:10.37,2013-01-31 09:25:00,
2013-01-31 01:30:00,46.4,41.2,30.26,WSW,248,0.0,0.0,82,0.00,CLR,,0.00,0.0,WeatherDisplay:10.37,2013-01-31 09:30:00,
2013-01-31 01:35:00,46.4,41.2,30.26,WSW,248,0.0,0.0,82,0.00,CLR,,0.00,0.0,WeatherDisplay:10.37,2013-01-31 09:35:00,
2013-01-31 01:40:00,46.6,41.4,30.26,WSW,248,0.0,0.0,82,0.00,CLR,,0.00,0.0,WeatherDisplay:10.37,2013-01-31 09:40:00,
2013-01-31 01:45:00,46.4,41.2,30.26,WSW,248,0.0,0.0,82,0.00,CLR,,0.00,0.0,WeatherDisplay:10.37,2013-01-31 09:45:00,
2013-01-31 01:50:00,46.4,41.2,30.26,WSW,248,0.0,0.0,82,0.00,CLR,,0.00,0.0,WeatherDisplay:10.37,2013-01-31 09:50:00,
2013-01-31 01:56:00,46.4,40.9,30.26,WSW,248,0.0,0.0,81,0.00,CLR,,0.00,0.0,WeatherDisplay:10.37,2013-01-31 09:56:00,
2013-01-31 02:01:00,46.4,41.2,30.26,WSW,248,0.0,0.0,82,0.00,CLR,,0.00,0.0,WeatherDisplay:10.37,2013-01-31 10:01:00,
2013-01-31 02:06:00,46.4,40.9,30.26,WSW,248,0.0,0.0,81,0.00,CLR,,0.00,0.0,WeatherDisplay:10.37,2013-01-31 10:06:00,
2013-01-31 02:11:00,46.4,40.9,30.26,WSW,248,0.0,0.0,81,0.00,CLR,,0.00,0.0,WeatherDisplay:10.37,2013-01-31 10:11:00,
2013-01-31 02:16:00,46.0,40.5,30.26,WSW,248,0.0,0.0,81,0.00,CLR,,0.00,0.0,WeatherDisplay:10.37,2013-01-31 10:16:00,
2013-01-31 02:21:00,46.2,40.4,30.26,WSW,248,0.0,0.0,80,0.00,CLR,,0.00,0.0,WeatherDisplay:10.37,2013-01-31 10:21:00,
2013-01-31 02:26:00,46.2,40.4,30.26,WSW,248,0.0,0.0,80,0.00,CLR,,0.00,0.0,WeatherDisplay:10.37,2013-01-31 10:26:00,
2013-01-31 02:32:00,45.7,39.9,30.26,WSW,248,0.0,0.0,80,0.00,CLR,,0.00,0.0,WeatherDisplay:10.37,2013-01-31 10:32:00,
2013-01-31 02:37:00,45.3,39.5,30.26,WSW,248,0.0,0.0,80,0.00,CLR,,0.00,0.0,WeatherDisplay:10.37,2013-01-31 10:37:00,
2013-01-31 02:42:00,45.0,39.2,30.26,WSW,248,0.0,0.0,80,0.00,CLR,,0.00,0.0,WeatherDisplay:10.37,2013-01-31 10:42:00,
2013-01-31 02:47:00,44.8,39.0,30.26,WSW,248,0.0,0.0,80,0.00,CLR,,0.00,0.0,WeatherDisplay:10.37,2013-01-31 10:47:00,
2013-01-31 02:52:00,44.6,38.8,30.26,WSW,248,0.0,0.0,80,0.00,CLR,,0.00,0.0,WeatherDisplay:10.37,2013-01-31 10:52:00,
2013-01-31 02:57:00,44.6,39.1,30.26,WSW,248,0.0,0.0,81,0.00,CLR,,0.00,0.0,WeatherDisplay:10.37,2013-01-31 10:57:00,
2013-01-31 03:02:00,44.2,38.8,30.26,WSW,248,0.0,0.0,81,0.00,CLR,,0.00,0.0,WeatherDisplay:10.37,2013-01-31 11:02:00,
2013-01-31 03:07:00,44.2,38.8,30.25,WSW,248,0.0,0.0,81,0.00,CLR,,0.00,0.0,WeatherDisplay:10.37,2013-01-31 11:07:00,
2013-01-31 03:12:00,44.1,38.6,30.25,WSW,248,0.0,0.0,81,0.00,CLR,,0.00,0.0,WeatherDisplay:10.37,2013-01-31 11:12:00,
2013-01-31 03:17:00,44.1,38.6,30.25,WSW,248,0.0,0.0,81,0.00,CLR,,0.00,0.0,WeatherDisplay:10.37,2013-01-31 11:17:00,
2013-01-31 03:22:00,44.1,38.6,30.25,WSW,248,0.0,0.0,81,0.00,CLR,,0.00,0.0,WeatherDisplay:10.37,2013-01-31 11:22:00,
2013-01-31 03:27:00,43.9,38.4,30.24,WSW,248,0.0,0.0,81,0.00,CLR,,0.00,0.0,WeatherDisplay:10.37,2013-01-31 11:27:00,
2013-01-31 03:33:00,44.1,38.9,30.24,WSW,248,0.0,0.0,82,0.00,CLR,,0.00,0.0,WeatherDisplay:10.37,2013-01-31 11:33:00,
2013-01-31 03:38:00,44.1,38.9,30.24,WSW,248,0.0,0.0,82,0.00,CLR,,0.00,0.0,WeatherDisplay:10.37,2013-01-31 11:38:00,
2013-01-31 03:43:00,44.1,38.9,30.24,WSW,248,0.0,0.0,82,0.00,CLR,,0.00,0.0,WeatherDisplay:10.37,2013-01-31 11:43:00,
2013-01-31 03:48:00,44.1,39.2,30.24,WSW,248,0.0,0.0,83,0.00,CLR,,0.00,0.0,WeatherDisplay:10.37,2013-01-31 11:48:00,
2013-01-31 03:53:00,44.2,39.4,30.24,WSW,248,0.0,0.0,83,0.00,CLR,,0.00,0.0,WeatherDisplay:10.37,2013-01-31 11:53:00,
2013-01-31 03:58:00,44.1,39.2,30.24,WSW,248,0.0,0.0,83,0.00,CLR,,0.00,0.0,WeatherDisplay:10.37,2013-01-31 11:58:00,
2013-01-31 04:03:00,44.1,39.2,30.24,WSW,248,0.0,0.0,83,0.00,CLR,,0.00,0.0,WeatherDisplay:10.37,2013-01-31 12:03:00,
2013-01-31 04:08:00,44.1,39.2,30.24,WSW,248,0.0,0.0,83,0.00,CLR,,0.00,0.0,WeatherDisplay:10.37,2013-01-31 12:08:00,
2013-01-31 04:13:00,43.7,38.9,30.24,WSW,248,0.0,0.0,83,0.00,CLR,,0.00,0.0,WeatherDisplay:10.37,2013-01-31 12:13:00,
2013-01-31 04:19:00,43.7,38.9,30.24,WSW,248,0.0,0.0,83,0.00,CLR,,0.00,0.0,WeatherDisplay:10.37,2013-01-31 12:19:00,
2013-01-31 04:24:00,43.5,38.7,30.24,WSW,248,0.0,0.0,83,0.00,CLR,,0.00,0.0,WeatherDisplay:10.37,2013-01-31 12:24:00,
2013-01-31 04:29:00,43.5,38.7,30.24,WSW,248,0.0,0.0,83,0.00,CLR,,0.00,0.0,WeatherDisplay:10.37,2013-01-31 12:29:00,
2013-01-31 04:34:00,43.7,38.9,30.24,WSW,248,0.0,0.0,83,0.00,CLR,,0.00,0.0,WeatherDisplay:10.37,2013-01-31 12:34:00,
2013-01-31 04:39:00,43.7,38.9,30.24,WSW,248,0.0,0.0,83,0.00,CLR,,0.00,0.0,WeatherDisplay:10.37,2013-01-31 12:39:00,
2013-01-31 04:44:00,43.7,38.9,30.24,WSW,248,0.0,0.0,83,0.00,CLR,,0.00,0.0,WeatherDisplay:10.37,2013-01-31 12:44:00,
2013-01-31 04:49:00,43.7,38.9,30.23,WSW,248,0.0,0.0,83,0.00,CLR,,0.00,0.0,WeatherDisplay:10.37,2013-01-31 12:49:00,
2013-01-31 04:54:00,43.7,38.9,30.23,WSW,248,0.0,0.0,83,0.00,CLR,,0.00,0.0,WeatherDisplay:10.37,2013-01-31 12:54:00,
2013-01-31 05:00:00,43.5,38.4,30.23,WSW,248,0.0,0.0,82,0.00,CLR,,0.00,0.0,WeatherDisplay:10.37,2013-01-31 13:00:00,
2013-01-31 05:05:00,43.3,38.5,30.23,WSW,248,0.0,0.0,83,0.00,CLR,,0.00,0.0,WeatherDisplay:10.37,2013-01-31 13:05:00,
2013-01-31 05:10:00,43.3,38.5,30.23,WSW,248,0.0,0.0,83,0.00,CLR,,0.00,0.0,WeatherDisplay:10.37,2013-01-31 13:10:00,
2013-01-31 05:16:00,43.0,38.2,30.23,WSW,248,0.0,0.0,83,0.00,CLR,,0.00,0.0,WeatherDisplay:10.37,2013-01-31 13:16:00,
2013-01-31 05:21:00,43.0,38.2,30.23,WSW,248,0.0,0.0,83,0.00,CLR,,0.00,0.0,WeatherDisplay:10.37,2013-01-31 13:21:00,
2013-01-31 05:26:00,43.3,38.5,30.23,WSW,248,0.0,0.0,83,0.00,CLR,,0.00,0.0,WeatherDisplay:10.37,2013-01-31 13:26:00,
2013-01-31 05:31:00,43.3,38.5,30.23,WSW,248,0.0,0.0,83,0.00,CLR,,0.00,0.0,WeatherDisplay:10.37,2013-01-31 13:31:00,
2013-01-31 05:36:00,43.3,38.5,30.23,WSW,248,0.0,0.0,83,0.00,CLR,,0.00,0.0,WeatherDisplay:10.37,2013-01-31 13:36:00,
2013-01-31 05:41:00,43.5,38.7,30.23,WSW,248,0.0,0.0,83,0.00,CLR,,0.00,0.0,WeatherDisplay:10.37,2013-01-31 13:41:00,
2013-01-31 05:46:00,43.7,39.2,30.22,WSW,248,0.0,0.0,84,0.00,CLR,,0.00,0.0,WeatherDisplay:10.37,2013-01-31 13:46:00,
2013-01-31 05:51:00,43.7,39.2,30.22,WSW,248,0.0,0.0,84,0.00,CLR,,0.00,0.0,WeatherDisplay:10.37,2013-01-31 13:51:00,
2013-01-31 05:56:00,43.7,39.2,30.22,WSW,248,0.0,0.0,84,0.00,CLR,,0.00,0.0,WeatherDisplay:10.37,2013-01-31 13:56:00,
2013-01-31 06:02:00,43.7,38.9,30.22,WSW,248,0.0,0.0,83,0.00,CLR,,0.00,0.0,WeatherDisplay:10.37,2013-01-31 14:02:00,
2013-01-31 06:07:00,43.7,38.9,30.22,WSW,248,0.0,0.0,83,0.00,CLR,,0.00,0.0,WeatherDisplay:10.37,2013-01-31 14:07:00,
2013-01-31 06:12:00,43.5,38.7,30.22,WSW,248,0.0,0.0,83,0.00,CLR,,0.00,0.0,WeatherDisplay:10.37,2013-01-31 14:12:00,
2013-01-31 06:17:00,43.5,38.7,30.22,WSW,248,0.0,0.0,83,0.00,CLR,,0.00,0.0,WeatherDisplay:10.37,2013-01-31 14:17:00,
2013-01-31 06:23:00,43.5,38.7,30.22,WSW,248,0.0,0.0,83,0.00,CLR,,0.00,0.0,WeatherDisplay:10.37,2013-01-31 14:23:00,
2013-01-31 06:28:00,43.5,38.7,30.22,WSW,248,0.0,0.0,83,0.00,CLR,,0.00,0.0,WeatherDisplay:10.37,2013-01-31 14:28:00,
2013-01-31 06:33:00,43.7,39.2,30.22,WSW,248,0.0,0.0,84,0.00,CLR,,0.00,0.0,WeatherDisplay:10.37,2013-01-31 14:33:00,
2013-01-31 06:38:00,44.1,39.8,30.22,WSW,248,0.0,0.0,85,0.00,CLR,,0.00,0.0,WeatherDisplay:10.37,2013-01-31 14:38:00,
2013-01-31 06:43:00,44.1,39.8,30.22,WSW,248,0.0,0.0,85,0.00,CLR,,0.00,0.0,WeatherDisplay:10.37,2013-01-31 14:43:00,
2013-01-31 06:49:00,44.2,40.0,30.22,WSW,248,0.0,0.0,85,0.00,CLR,,0.00,0.0,WeatherDisplay:10.37,2013-01-31 14:49:00,
2013-01-31 06:54:00,44.2,40.0,30.22,WSW,248,0.0,0.0,85,0.00,CLR,,0.00,0.0,WeatherDisplay:10.37,2013-01-31 14:54:00,
2013-01-31 06:59:00,44.1,39.8,30.22,WSW,248,0.0,0.0,85,0.00,CLR,,0.00,0.0,WeatherDisplay:10.37,2013-01-31 14:59:00,
2013-01-31 07:04:00,43.9,39.4,30.22,WSW,248,0.0,0.0,84,0.00,OVC,,0.00,0.0,WeatherDisplay:10.37,2013-01-31 15:04:00,
2013-01-31 07:09:00,43.7,39.2,30.23,WSW,248,0.0,0.0,84,0.00,OVC,,0.00,0.0,WeatherDisplay:10.37,2013-01-31 15:09:00,
2013-01-31 07:14:00,43.7,38.9,30.23,WSW,248,0.0,0.0,83,0.00,OVC,,0.00,0.0,WeatherDisplay:10.37,2013-01-31 15:14:00,
2013-01-31 07:19:00,43.5,38.7,30.23,WSW,248,0.0,0.0,83,0.00,OVC,,0.00,0.0,WeatherDisplay:10.37,2013-01-31 15:19:00,
2013-01-31 07:24:00,43.3,38.5,30.23,WSW,248,0.0,0.0,83,0.00,OVC,,0.00,0.0,WeatherDisplay:10.37,2013-01-31 15:24:00,
2013-01-31 07:29:00,43.0,38.2,30.23,WSW,248,0.0,0.0,83,0.00,OVC,,0.00,0.0,WeatherDisplay:10.37,2013-01-31 15:29:00,
2013-01-31 07:34:00,43.0,38.2,30.23,WSW,248,0.0,0.0,83,0.00,OVC,,0.00,0.0,WeatherDisplay:10.37,2013-01-31 15:34:00,
2013-01-31 07:40:00,43.0,38.2,30.23,WSW,248,0.0,0.0,83,0.00,OVC,,0.00,0.0,WeatherDisplay:10.37,2013-01-31 15:40:00,
2013-01-31 07:45:00,43.0,38.5,30.23,WSW,248,0.0,0.0,84,0.00,OVC,,0.00,0.0,WeatherDisplay:10.37,2013-01-31 15:45:00,
2013-01-31 07:50:00,43.3,38.8,30.24,WSW,248,0.0,0.0,84,0.00,OVC,,0.00,0.0,WeatherDisplay:10.37,2013-01-31 15:50:00,
2013-01-31 07:55:00,43.3,38.8,30.24,WSW,248,0.0,0.0,84,0.00,OVC,,0.00,0.0,WeatherDisplay:10.37,2013-01-31 15:55:00,
2013-01-31 08:00:00,43.2,38.7,30.24,WSW,248,0.0,0.0,84,0.00,OVC,,0.00,0.0,WeatherDisplay:10.37,2013-01-31 16:00:00,
2013-01-31 08:05:00,43.3,38.8,30.24,WSW,248,0.0,0.0,84,0.00,OVC,,0.00,0.0,WeatherDisplay:10.37,2013-01-31 16:05:00,
2013-01-31 08:10:00,43.5,39.3,30.25,WSW,248,0.0,0.0,85,0.00,OVC,,0.00,0.0,WeatherDisplay:10.37,2013-01-31 16:10:00,
2013-01-31 08:15:00,43.7,39.5,30.25,WSW,248,0.0,0.0,85,0.00,OVC,,0.00,0.0,WeatherDisplay:10.37,2013-01-31 16:15:00,
2013-01-31 08:20:00,43.9,39.7,30.25,WSW,248,0.0,0.0,85,0.00,OVC,,0.00,0.0,WeatherDisplay:10.37,2013-01-31 16:20:00,
2013-01-31 08:26:00,44.1,39.8,30.25,WSW,248,0.0,0.0,85,0.00,OVC,,0.00,0.0,WeatherDisplay:10.37,2013-01-31 16:26:00,
2013-01-31 08:31:00,44.1,39.8,30.25,WSW,248,0.0,0.0,85,0.00,OVC,,0.00,0.0,WeatherDisplay:10.37,2013-01-31 16:31:00,
2013-01-31 08:36:00,44.8,40.5,30.25,WSW,248,0.0,0.0,85,0.00,OVC,,0.00,0.0,WeatherDisplay:10.37,2013-01-31 16:36:00,
2013-01-31 08:41:00,44.8,40.5,30.25,WSW,248,0.0,0.0,85,0.00,OVC,,0.00,0.0,WeatherDisplay:10.37,2013-01-31 16:41:00,
2013-01-31 08:46:00,45.1,41.2,30.25,WSW,248,0.0,0.0,86,0.00,OVC,,0.00,0.0,WeatherDisplay:10.37,2013-01-31 16:46:00,
2013-01-31 08:52:00,45.7,41.7,30.25,WSW,248,0.0,0.0,86,0.00,OVC,,0.00,0.0,WeatherDisplay:10.37,2013-01-31 16:52:00,
2013-01-31 08:57:00,46.2,42.0,30.25,WSW,248,0.0,0.0,85,0.00,OVC,,0.00,0.0,WeatherDisplay:10.37,2013-01-31 16:57:00,
2013-01-31 09:02:00,46.6,42.3,30.25,WSW,248,0.0,0.0,85,0.00,OVC,,0.00,0.0,WeatherDisplay:10.37,2013-01-31 17:02:00,
2013-01-31 09:07:00,46.8,42.5,30.26,WSW,248,0.0,0.0,85,0.00,OVC,,0.00,0.0,WeatherDisplay:10.37,2013-01-31 17:07:00,
2013-01-31 09:12:00,47.3,43.0,30.26,WSW,248,0.0,0.0,85,0.00,OVC,,0.00,0.0,WeatherDisplay:10.37,2013-01-31 17:12:00,
2013-01-31 09:17:00,47.7,43.4,30.26,WSW,248,0.0,0.0,85,0.00,OVC,,0.00,0.0,WeatherDisplay:10.37,2013-01-31 17:17:00,
2013-01-31 09:22:00,47.8,43.5,30.26,WSW,248,0.0,0.0,85,0.00,OVC,,0.00,0.0,WeatherDisplay:10.37,2013-01-31 17:22:00,
2013-01-31 09:28:00,48.0,43.4,30.25,WSW,248,0.0,0.0,84,0.00,OVC,,0.00,0.0,WeatherDisplay:10.37,2013-01-31 17:28:00,
2013-01-31 09:33:00,48.4,43.8,30.25,WSW,248,0.0,0.0,84,0.00,OVC,,0.00,0.0,WeatherDisplay:10.37,2013-01-31 17:33:00,
2013-01-31 09:38:00,48.7,43.8,30.25,WSW,248,0.0,0.0,83,0.00,OVC,,0.00,0.0,WeatherDisplay:10.37,2013-01-31 17:38:00,
2013-01-31 09:44:00,49.3,44.3,30.25,WSW,248,0.0,0.0,83,0.00,OVC,,0.00,0.0,WeatherDisplay:10.37,2013-01-31 17:44:00,
2013-01-31 09:49:00,49.6,44.4,30.25,WSW,248,0.0,0.0,82,0.00,OVC,,0.00,0.0,WeatherDisplay:10.37,2013-01-31 17:49:00,
2013-01-31 09:54:00,50.7,45.1,30.25,WSW,248,0.0,0.0,81,0.00,OVC,,0.00,0.0,WeatherDisplay:10.37,2013-01-31 17:54:00,
2013-01-31 09:59:00,51.4,45.8,30.25,WSW,248,0.0,0.0,81,0.00,OVC,,0.00,0.0,WeatherDisplay:10.37,2013-01-31 17:59:00,
2013-01-31 10:04:00,52.3,46.4,30.25,WSW,248,0.0,0.0,80,0.00,OVC,,0.00,0.0,WeatherDisplay:10.37,2013-01-31 18:04:00,
2013-01-31 10:09:00,52.9,46.2,30.26,WSW,248,0.0,0.0,78,0.00,OVC,,0.00,0.0,WeatherDisplay:10.37,2013-01-31 18:09:00,
2013-01-31 10:15:00,53.4,46.4,30.26,WSW,248,0.0,0.0,77,0.00,OVC,,0.00,0.0,WeatherDisplay:10.37,2013-01-31 18:15:00,
2013-01-31 10:20:00,53.8,46.4,30.26,WSW,248,0.0,0.0,76,0.00,OVC,,0.00,0.0,WeatherDisplay:10.37,2013-01-31 18:20:00,
2013-01-31 10:25:00,54.1,46.4,30.26,WSW,248,0.0,0.0,75,0.00,OVC,,0.00,0.0,WeatherDisplay:10.37,2013-01-31 18:25:00,
2013-01-31 10:30:00,54.5,46.4,30.25,WSW,248,0.0,0.0,74,0.00,OVC,,0.00,0.0,WeatherDisplay:10.37,2013-01-31 18:30:00,
2013-01-31 10:35:00,54.9,46.0,30.25,WSW,248,0.0,0.0,72,0.00,OVC,,0.00,0.0,WeatherDisplay:10.37,2013-01-31 18:35:00,
2013-01-31 10:41:00,55.0,46.5,30.25,WSW,248,0.0,0.0,73,0.00,OVC,,0.00,0.0,WeatherDisplay:10.37,2013-01-31 18:41:00,
2013-01-31 10:46:00,55.0,45.8,30.25,WSW,248,0.0,0.0,71,0.00,OVC,,0.00,0.0,WeatherDisplay:10.37,2013-01-31 18:46:00,
2013-01-31 10:51:00,55.6,46.3,30.25,WSW,248,0.0,0.0,71,0.00,OVC,,0.00,0.0,WeatherDisplay:10.37,2013-01-31 18:51:00,
2013-01-31 10:56:00,55.6,45.2,30.25,WSW,248,0.0,0.0,68,0.00,OVC,,0.00,0.0,WeatherDisplay:10.37,2013-01-31 18:56:00,
2013-01-31 11:01:00,55.6,44.8,30.25,WSW,248,0.0,0.0,67,0.00,OVC,,0.00,0.0,WeatherDisplay:10.37,2013-01-31 19:01:00,
2013-01-31 11:06:00,55.9,46.3,30.25,WSW,248,0.0,0.0,70,0.00,OVC,,0.00,0.0,WeatherDisplay:10.37,2013-01-31 19:06:00,
2013-01-31 11:11:00,56.5,46.8,30.25,WSW,248,0.0,0.0,70,0.00,OVC,,0.00,0.0,WeatherDisplay:10.37,2013-01-31 19:11:00,
2013-01-31 11:16:00,57.0,47.7,30.25,WSW,248,0.0,0.0,71,0.00,OVC,,0.00,0.0,WeatherDisplay:10.37,2013-01-31 19:16:00,
2013-01-31 11:21:00,57.2,47.5,30.25,WSW,248,0.0,0.0,70,0.00,OVC,,0.00,0.0,WeatherDisplay:10.37,2013-01-31 19:21:00,
2013-01-31 11:26:00,57.4,47.7,30.24,WSW,248,0.0,0.0,70,0.00,OVC,,0.00,0.0,WeatherDisplay:10.37,2013-01-31 19:26:00,
2013-01-31 11:31:00,57.7,47.2,30.24,WSW,248,0.0,0.0,68,0.00,OVC,,0.00,0.0,WeatherDisplay:10.37,2013-01-31 19:31:00,
2013-01-31 11:37:00,57.7,46.9,30.24,WSW,248,0.0,0.0,67,0.00,OVC,,0.00,0.0,WeatherDisplay:10.37,2013-01-31 19:37:00,
2013-01-31 11:42:00,57.7,46.5,30.24,WSW,248,0.0,0.0,66,0.00,OVC,,0.00,0.0,WeatherDisplay:10.37,2013-01-31 19:42:00,
2013-01-31 11:47:00,58.1,46.8,30.23,WSW,248,0.0,0.0,66,0.00,OVC,,0.00,0.0,WeatherDisplay:10.37,2013-01-31 19:47:00,
2013-01-31 11:52:00,58.1,46.8,30.23,WSW,248,0.0,0.0,66,0.00,OVC,,0.00,0.0,WeatherDisplay:10.37,2013-01-31 19:52:00,
2013-01-31 11:57:00,58.5,47.1,30.23,WSW,248,0.0,0.0,66,0.00,OVC,,0.00,0.0,WeatherDisplay:10.37,2013-01-31 19:57:00,
2013-01-31 12:02:00,58.5,47.1,30.23,WSW,248,0.0,0.0,66,0.00,OVC,,0.00,0.0,WeatherDisplay:10.37,2013-01-31 20:02:00,
2013-01-31 12:08:00,58.5,47.1,30.23,WSW,248,0.0,0.0,66,0.00,OVC,,0.00,0.0,WeatherDisplay:10.37,2013-01-31 20:08:00,
2013-01-31 12:13:00,58.8,48.3,30.23,WSW,248,0.0,0.0,68,0.00,OVC,,0.00,0.0,WeatherDisplay:10.37,2013-01-31 20:13:00,
2013-01-31 12:18:00,59.2,48.6,30.23,WSW,248,0.0,0.0,68,0.00,OVC,,0.00,0.0,WeatherDisplay:10.37,2013-01-31 20:18:00,
2013-01-31 12:23:00,59.2,48.6,30.23,WSW,248,0.0,0.0,68,0.00,OVC,,0.00,0.0,WeatherDisplay:10.37,2013-01-31 20:23:00,
2013-01-31 12:28:00,59.4,48.8,30.21,WSW,248,0.0,0.0,68,0.00,OVC,,0.00,0.0,WeatherDisplay:10.37,2013-01-31 20:28:00,
2013-01-31 12:34:00,59.7,49.1,30.21,WSW,248,0.0,0.0,68,0.00,OVC,,0.00,0.0,WeatherDisplay:10.37,2013-01-31 20:34:00,
2013-01-31 12:39:00,59.9,49.7,30.21,WSW,248,0.0,0.0,69,0.00,OVC,,0.00,0.0,WeatherDisplay:10.37,2013-01-31 20:39:00,
2013-01-31 12:44:00,60.3,50.0,30.21,WSW,248,0.0,0.0,69,0.00,OVC,,0.00,0.0,WeatherDisplay:10.37,2013-01-31 20:44:00,
2013-01-31 12:49:00,60.6,50.4,30.21,WSW,248,0.0,0.0,69,0.00,OVC,,0.00,0.0,WeatherDisplay:10.37,2013-01-31 20:49:00,
2013-01-31 12:54:00,61.2,50.9,30.21,WSW,248,0.0,0.0,69,0.00,OVC,,0.00,0.0,WeatherDisplay:10.37,2013-01-31 20:54:00,
2013-01-31 12:59:00,61.3,50.7,30.21,WSW,248,0.0,0.0,68,0.00,OVC,,0.00,0.0,WeatherDisplay:10.37,2013-01-31 20:59:00,
2013-01-31 13:04:00,61.5,50.9,30.21,WSW,248,0.0,0.0,68,0.00,OVC,,0.00,0.0,WeatherDisplay:10.37,2013-01-31 21:04:00,
2013-01-31 13:09:00,61.7,50.6,30.20,WSW,248,0.0,0.0,67,0.00,OVC,,0.00,0.0,WeatherDisplay:10.37,2013-01-31 21:09:00,
2013-01-31 13:14:00,61.7,50.2,30.20,WSW,248,0.0,0.0,66,0.00,OVC,,0.00,0.0,WeatherDisplay:10.37,2013-01-31 21:14:00,
2013-01-31 13:20:00,61.9,50.0,30.20,WSW,248,0.0,0.0,65,0.00,OVC,,0.00,0.0,WeatherDisplay:10.37,2013-01-31 21:20:00,
2013-01-31 13:25:00,62.2,50.3,30.20,WSW,248,0.0,0.0,65,0.00,OVC,,0.00,0.0,WeatherDisplay:10.37,2013-01-31 21:25:00,
2013-01-31 13:30:00,62.8,50.4,30.19,WSW,248,0.0,0.0,64,0.00,OVC,,0.00,0.0,WeatherDisplay:10.37,2013-01-31 21:30:00,
2013-01-31 13:35:00,62.8,50.4,30.19,WSW,248,0.0,0.0,64,0.00,OVC,,0.00,0.0,WeatherDisplay:10.37,2013-01-31 21:35:00,
2013-01-31 13:40:00,62.8,50.4,30.19,WSW,248,0.0,0.0,64,0.00,OVC,,0.00,0.0,WeatherDisplay:10.37,2013-01-31 21:40:00,
2013-01-31 13:46:00,63.1,50.3,30.18,WSW,248,0.0,0.0,63,0.00,OVC,,0.00,0.0,WeatherDisplay:10.37,2013-01-31 21:46:00,
2013-01-31 13:51:00,63.5,49.8,30.18,WSW,248,0.0,0.0,61,0.00,OVC,,0.00,0.0,WeatherDisplay:10.37,2013-01-31 21:51:00,
2013-01-31 13:56:00,63.9,49.7,30.18,WSW,248,0.0,0.0,60,0.00,OVC,,0.00,0.0,WeatherDisplay:10.37,2013-01-31 21:56:00,
2013-01-31 14:01:00,63.9,49.2,30.18,WSW,248,0.0,0.0,59,0.00,OVC,,0.00,0.0,WeatherDisplay:10.37,2013-01-31 22:01:00,
2013-01-31 14:06:00,64.2,49.1,30.17,WSW,248,0.0,0.0,58,0.00,OVC,,0.00,0.0,WeatherDisplay:10.37,2013-01-31 22:06:00,
2013-01-31 14:11:00,64.4,49.8,30.17,WSW,248,0.0,0.0,59,0.00,OVC,,0.00,0.0,WeatherDisplay:10.37,2013-01-31 22:11:00,
2013-01-31 14:17:00,64.4,49.8,30.17,WSW,248,0.0,0.0,59,0.00,OVC,,0.00,0.0,WeatherDisplay:10.37,2013-01-31 22:17:00,
2013-01-31 14:22:00,64.4,49.3,30.17,WSW,248,0.0,0.0,58,0.00,OVC,,0.00,0.0,WeatherDisplay:10.37,2013-01-31 22:22:00,
2013-01-31 14:27:00,64.4,49.3,30.17,WSW,248,0.0,0.0,58,0.00,OVC,,0.00,0.0,WeatherDisplay:10.37,2013-01-31 22:27:00,
2013-01-31 14:32:00,64.6,48.5,30.17,WSW,248,0.0,0.0,56,0.00,OVC,,0.00,0.0,WeatherDisplay:10.37,2013-01-31 22:32:00,
2013-01-31 14:37:00,64.8,49.2,30.17,WSW,248,0.0,0.0,57,0.00,OVC,,0.00,0.0,WeatherDisplay:10.37,2013-01-31 22:37:00,
2013-01-31 14:42:00,64.9,48.9,30.17,WSW,248,0.0,0.0,56,0.00,OVC,,0.00,0.0,WeatherDisplay:10.37,2013-01-31 22:42:00,
2013-01-31 14:48:00,65.1,49.0,30.17,WSW,248,0.0,0.0,56,0.00,OVC,,0.00,0.0,WeatherDisplay:10.37,2013-01-31 22:48:00,
2013-01-31 14:53:00,65.1,49.0,30.17,WSW,248,0.0,0.0,56,0.00,OVC,,0.00,0.0,WeatherDisplay:10.37,2013-01-31 22:53:00,
2013-01-31 14:58:00,65.3,49.2,30.17,WSW,248,0.0,0.0,56,0.00,OVC,,0.00,0.0,WeatherDisplay:10.37,2013-01-31 22:58:00,
2013-01-31 15:03:00,65.7,49.0,30.17,WSW,248,0.0,0.0,55,0.00,OVC,,0.00,0.0,WeatherDisplay:10.37,2013-01-31 23:03:00,
2013-01-31 15:09:00,65.5,48.9,30.17,WSW,248,0.0,0.0,55,0.00,OVC,,0.00,0.0,WeatherDisplay:10.37,2013-01-31 23:09:00,
2013-01-31 15:14:00,65.5,48.9,30.17,WSW,248,0.0,0.0,55,0.00,OVC,,0.00,0.0,WeatherDisplay:10.37,2013-01-31 23:14:00,
2013-01-31 15:19:00,65.7,49.0,30.17,WSW,248,0.0,0.0,55,0.00,OVC,,0.00,0.0,WeatherDisplay:10.37,2013-01-31 23:19:00,
2013-01-31 15:24:00,65.7,49.0,30.17,WSW,248,0.0,0.0,55,0.00,OVC,,0.00,0.0,WeatherDisplay:10.37,2013-01-31 23:24:00,
2013-01-31 15:29:00,65.8,48.7,30.17,WSW,248,0.0,0.0,54,0.00,OVC,,0.00,0.0,WeatherDisplay:10.37,2013-01-31 23:29:00,
2013-01-31 15:34:00,66.0,49.4,30.17,WSW,248,0.0,0.0,55,0.00,OVC,,0.00,0.0,WeatherDisplay:10.37,2013-01-31 23:34:00,
2013-01-31 15:39:00,66.0,48.9,30.17,WSW,248,0.0,0.0,54,0.00,OVC,,0.00,0.0,WeatherDisplay:10.37,2013-01-31 23:39:00,
2013-01-31 15:44:00,65.8,48.7,30.17,WSW,248,0.0,0.0,54,0.00,OVC,,0.00,0.0,WeatherDisplay:10.37,2013-01-31 23:44:00,
2013-01-31 15:50:00,66.0,48.9,30.16,WSW,248,0.0,0.0,54,0.00,OVC,,0.00,0.0,WeatherDisplay:10.37,2013-01-31 23:50:00,
2013-01-31 15:55:00,66.0,48.4,30.16,WSW,248,0.0,0.0,53,0.00,OVC,,0.00,0.0,WeatherDisplay:10.37,2013-01-31 23:55:00,
2013-01-31 16:00:00,66.0,48.9,30.16,WSW,248,0.0,0.0,54,0.00,OVC,,0.00,0.0,WeatherDisplay:10.37,2013-02-01 00:00:00,
2013-01-31 16:05:00,65.8,48.2,30.16,WSW,248,0.0,0.0,53,0.00,OVC,,0.00,0.0,WeatherDisplay:10.37,2013-02-01 00:05:00,
2013-01-31 16:10:00,66.0,48.4,30.16,WSW,248,0.0,0.0,53,0.00,OVC,,0.00,0.0,WeatherDisplay:10.37,2013-02-01 00:10:00,
2013-01-31 16:15:00,65.8,48.2,30.16,WSW,248,0.0,0.0,53,0.00,OVC,,0.00,0.0,WeatherDisplay:10.37,2013-02-01 00:15:00,
2013-01-31 16:20:00,65.7,48.1,30.16,WSW,248,0.0,0.0,53,0.00,OVC,,0.00,0.0,WeatherDisplay:10.37,2013-02-01 00:20:00,
2013-01-31 16:25:00,65.7,48.6,30.16,WSW,248,0.0,0.0,54,0.00,OVC,,0.00,0.0,WeatherDisplay:10.37,2013-02-01 00:25:00,
2013-01-31 16:30:00,65.3,48.2,30.16,WSW,248,0.0,0.0,54,0.00,OVC,,0.00,0.0,WeatherDisplay:10.37,2013-02-01 00:30:00,
2013-01-31 16:36:00,64.9,47.9,30.16,WSW,248,0.0,0.0,54,0.00,OVC,,0.00,0.0,WeatherDisplay:10.37,2013-02-01 00:36:00,
2013-01-31 16:41:00,64.9,47.9,30.16,WSW,248,0.0,0.0,54,0.00,OVC,,0.00,0.0,WeatherDisplay:10.37,2013-02-01 00:41:00,
2013-01-31 16:46:00,64.6,48.0,30.15,WSW,248,0.0,0.0,55,0.00,OVC,,0.00,0.0,WeatherDisplay:10.37,2013-02-01 00:46:00,
2013-01-31 16:51:00,64.4,47.9,30.15,WSW,248,0.0,0.0,55,0.00,OVC,,0.00,0.0,WeatherDisplay:10.37,2013-02-01 00:51:00,
2013-01-31 16:56:00,64.4,47.9,30.15,WSW,248,0.0,0.0,55,0.00,OVC,,0.00,0.0,WeatherDisplay:10.37,2013-02-01 00:56:00,
2013-01-31 17:01:00,64.2,47.7,30.15,WSW,248,0.0,0.0,55,0.00,OVC,,0.00,0.0,WeatherDisplay:10.37,2013-02-01 01:01:00,
2013-01-31 17:06:00,63.9,47.9,30.16,WSW,248,0.0,0.0,56,0.00,OVC,,0.00,0.0,WeatherDisplay:10.37,2013-02-01 01:06:00,
2013-01-31 17:11:00,63.5,47.0,30.16,WSW,248,0.0,0.0,55,0.00,OVC,,0.00,0.0,WeatherDisplay:10.37,2013-02-01 01:11:00,
2013-01-31 17:17:00,63.5,47.5,30.16,WSW,248,0.0,0.0,56,0.00,OVC,,0.00,0.0,WeatherDisplay:10.37,2013-02-01 01:17:00,
2013-01-31 17:22:00,63.0,47.0,30.16,WSW,248,0.0,0.0,56,0.00,OVC,,0.00,0.0,WeatherDisplay:10.37,2013-02-01 01:22:00,
2013-01-31 17:27:00,62.6,46.7,30.15,WSW,248,0.0,0.0,56,0.00,OVC,,0.00,0.0,WeatherDisplay:10.37,2013-02-01 01:27:00,
2013-01-31 17:32:00,62.4,46.5,30.15,WSW,248,0.0,0.0,56,0.00,OVC,,0.00,0.0,WeatherDisplay:10.37,2013-02-01 01:32:00,
2013-01-31 17:37:00,62.4,47.0,30.15,WSW,248,0.0,0.0,57,0.00,OVC,,0.00,0.0,WeatherDisplay:10.37,2013-02-01 01:37:00,
2013-01-31 17:42:00,61.7,46.8,30.15,WSW,248,0.0,0.0,58,0.00,OVC,,0.00,0.0,WeatherDisplay:10.37,2013-02-01 01:42:00,
2013-01-31 17:47:00,61.7,47.2,30.15,WSW,248,0.0,0.0,59,0.00,OVC,,0.00,0.0,WeatherDisplay:10.37,2013-02-01 01:47:00,
2013-01-31 17:52:00,61.0,47.0,30.15,WSW,248,0.0,0.0,60,0.00,OVC,,0.00,0.0,WeatherDisplay:10.37,2013-02-01 01:52:00,
2013-01-31 17:57:00,60.8,47.7,30.15,WSW,248,0.0,0.0,62,0.00,OVC,,0.00,0.0,WeatherDisplay:10.37,2013-02-01 01:57:00,
2013-01-31 18:02:00,60.4,47.8,30.15,WSW,248,0.0,0.0,63,0.00,CLR,,0.00,0.0,WeatherDisplay:10.37,2013-02-01 02:02:00,
2013-01-31 18:08:00,60.1,47.4,30.15,WSW,248,0.0,0.0,63,0.00,CLR,,0.00,0.0,WeatherDisplay:10.37,2013-02-01 02:08:00,
2013-01-31 18:13:00,59.7,47.5,30.15,WSW,248,0.0,0.0,64,0.00,CLR,,0.00,0.0,WeatherDisplay:10.37,2013-02-01 02:13:00,
2013-01-31 18:18:00,59.4,47.6,30.15,WSW,248,0.0,0.0,65,0.00,CLR,,0.00,0.0,WeatherDisplay:10.37,2013-02-01 02:18:00,
2013-01-31 18:23:00,59.2,47.4,30.15,WSW,248,0.0,0.0,65,0.00,CLR,,0.00,0.0,WeatherDisplay:10.37,2013-02-01 02:23:00,
2013-01-31 18:28:00,58.8,47.5,30.16,WSW,248,0.0,0.0,66,0.00,CLR,,0.00,0.0,WeatherDisplay:10.37,2013-02-01 02:28:00,
2013-01-31 18:33:00,58.6,47.3,30.16,WSW,248,0.0,0.0,66,0.00,CLR,,0.00,0.0,WeatherDisplay:10.37,2013-02-01 02:33:00,
2013-01-31 18:38:00,58.5,47.5,30.16,WSW,248,0.0,0.0,67,0.00,CLR,,0.00,0.0,WeatherDisplay:10.37,2013-02-01 02:38:00,
2013-01-31 18:43:00,58.1,47.2,30.16,WSW,248,0.0,0.0,67,0.00,CLR,,0.00,0.0,WeatherDisplay:10.37,2013-02-01 02:43:00,
2013-01-31 18:49:00,58.1,47.6,30.16,WSW,248,0.0,0.0,68,0.00,CLR,,0.00,0.0,WeatherDisplay:10.37,2013-02-01 02:49:00,
2013-01-31 18:54:00,57.9,47.4,30.16,WSW,248,0.0,0.0,68,0.00,CLR,,0.00,0.0,WeatherDisplay:10.37,2013-02-01 02:54:00,
2013-01-31 18:59:00,57.7,47.2,30.16,WSW,248,0.0,0.0,68,0.00,CLR,,0.00,0.0,WeatherDisplay:10.37,2013-02-01 02:59:00,
2013-01-31 19:04:00,57.7,47.2,30.16,WSW,248,0.0,0.0,68,0.00,CLR,,0.00,0.0,WeatherDisplay:10.37,2013-02-01 03:04:00,
2013-01-31 19:09:00,57.7,47.2,30.15,WSW,248,0.0,0.0,68,0.00,CLR,,0.00,0.0,WeatherDisplay:10.37,2013-02-01 03:09:00,
2013-01-31 19:14:00,57.7,47.2,30.15,WSW,248,0.0,0.0,68,0.00,CLR,,0.00,0.0,WeatherDisplay:10.37,2013-02-01 03:14:00,
2013-01-31 19:19:00,57.7,47.2,30.15,WSW,248,0.0,0.0,68,0.00,CLR,,0.00,0.0,WeatherDisplay:10.37,2013-02-01 03:19:00,
2013-01-31 19:24:00,57.4,47.3,30.15,WSW,248,0.0,0.0,69,0.00,CLR,,0.00,0.0,WeatherDisplay:10.37,2013-02-01 03:24:00,
2013-01-31 19:29:00,57.4,47.3,30.16,WSW,248,0.0,0.0,69,0.00,CLR,,0.00,0.0,WeatherDisplay:10.37,2013-02-01 03:29:00,
2013-01-31 19:35:00,57.4,47.3,30.16,WSW,248,0.0,0.0,69,0.00,CLR,,0.00,0.0,WeatherDisplay:10.37,2013-02-01 03:35:00,
2013-01-31 19:40:00,57.2,47.5,30.16,WSW,248,0.0,0.0,70,0.00,CLR,,0.00,0.0,WeatherDisplay:10.37,2013-02-01 03:40:00,
2013-01-31 19:45:00,57.2,47.5,30.16,WSW,248,0.0,0.0,70,0.00,CLR,,0.00,0.0,WeatherDisplay:10.37,2013-02-01 03:45:00,
2013-01-31 19:50:00,56.8,47.2,30.17,WSW,248,0.0,0.0,70,0.00,CLR,,0.00,0.0,WeatherDisplay:10.37,2013-02-01 03:50:00,
2013-01-31 19:55:00,56.8,47.5,30.17,WSW,248,0.0,0.0,71,0.00,CLR,,0.00,0.0,WeatherDisplay:10.37,2013-02-01 03:55:00,
2013-01-31 20:01:00,56.7,47.4,30.17,WSW,248,0.0,0.0,71,0.00,CLR,,0.00,0.0,WeatherDisplay:10.37,2013-02-01 04:01:00,
2013-01-31 20:06:00,56.5,47.2,30.16,WSW,248,0.0,0.0,71,0.00,CLR,,0.00,0.0,WeatherDisplay:10.37,2013-02-01 04:06:00,
2013-01-31 20:11:00,56.7,47.4,30.16,WSW,248,0.0,0.0,71,0.00,CLR,,0.00,0.0,WeatherDisplay:10.37,2013-02-01 04:11:00,
2013-01-31 20:16:00,56.5,47.2,30.16,WSW,248,0.0,0.0,71,0.00,CLR,,0.00,0.0,WeatherDisplay:10.37,2013-02-01 04:16:00,
2013-01-31 20:21:00,56.3,47.0,30.16,WSW,248,0.0,0.0,71,0.00,CLR,,0.00,0.0,WeatherDisplay:10.37,2013-02-01 04:21:00,
2013-01-31 20:26:00,55.9,46.7,30.17,WSW,248,0.0,0.0,71,0.00,CLR,,0.00,0.0,WeatherDisplay:10.37,2013-02-01 04:26:00,
2013-01-31 20:31:00,55.8,46.5,30.17,WSW,248,0.0,0.0,71,0.00,CLR,,0.00,0.0,WeatherDisplay:10.37,2013-02-01 04:31:00,
2013-01-31 20:36:00,55.6,46.3,30.17,WSW,248,0.0,0.0,71,0.00,CLR,,0.00,0.0,WeatherDisplay:10.37,2013-02-01 04:36:00,
2013-01-31 20:41:00,55.2,46.0,30.17,WSW,248,0.0,0.0,71,0.00,CLR,,0.00,0.0,WeatherDisplay:10.37,2013-02-01 04:41:00,
2013-01-31 20:47:00,54.9,46.0,30.17,WSW,248,0.0,0.0,72,0.00,CLR,,0.00,0.0,WeatherDisplay:10.37,2013-02-01 04:47:00,
2013-01-31 20:52:00,54.9,46.0,30.17,WSW,248,0.0,0.0,72,0.00,CLR,,0.00,0.0,WeatherDisplay:10.37,2013-02-01 04:52:00,
2013-01-31 20:57:00,54.5,45.7,30.17,WSW,248,0.0,0.0,72,0.00,CLR,,0.00,0.0,WeatherDisplay:10.37,2013-02-01 04:57:00,
2013-01-31 21:00:00,54.3,45.5,30.17,WSW,248,0.0,0.0,72,0.00,CLR,,0.00,0.0,WeatherDisplay:10.37,2013-02-01 05:00:00,
2013-01-31 21:01:00,54.3,45.5,30.17,WSW,248,0.0,0.0,72,0.00,CLR,,0.00,0.0,WeatherDisplay:10.37,2013-02-01 05:01:00,
2013-01-31 21:03:00,54.3,45.5,30.17,WSW,248,0.0,0.0,72,0.00,CLR,,0.00,0.0,WeatherDisplay:10.37,2013-02-01 05:03:00,
2013-01-31 21:08:00,54.1,45.3,30.18,WSW,248,0.0,0.0,72,0.00,CLR,,0.00,0.0,WeatherDisplay:10.37,2013-02-01 05:08:00,
2013-01-31 21:13:00,53.8,45.3,30.18,WSW,248,0.0,0.0,73,0.00,CLR,,0.00,0.0,WeatherDisplay:10.37,2013-02-01 05:13:00,
2013-01-31 21:18:00,53.6,45.2,30.18,WSW,248,0.0,0.0,73,0.00,CLR,,0.00,0.0,WeatherDisplay:10.37,2013-02-01 05:18:00,
2013-01-31 21:23:00,53.4,45.0,30.18,WSW,248,0.0,0.0,73,0.00,CLR,,0.00,0.0,WeatherDisplay:10.37,2013-02-01 05:23:00,
2013-01-31 21:28:00,53.2,45.2,30.17,WSW,248,0.0,0.0,74,0.00,CLR,,0.00,0.0,WeatherDisplay:10.37,2013-02-01 05:28:00,
2013-01-31 21:33:00,52.9,44.8,30.17,WSW,248,0.0,0.0,74,0.00,CLR,,0.00,0.0,WeatherDisplay:10.37,2013-02-01 05:33:00,
2013-01-31 21:39:00,52.7,44.6,30.17,WSW,248,0.0,0.0,74,0.00,CLR,,0.00,0.0,WeatherDisplay:10.37,2013-02-01 05:39:00,
2013-01-31 21:44:00,52.5,44.8,30.17,WSW,248,0.0,0.0,75,0.00,CLR,,0.00,0.0,WeatherDisplay:10.37,2013-02-01 05:44:00,
2013-01-31 21:49:00,52.3,44.6,30.18,WSW,248,0.0,0.0,75,0.00,CLR,,0.00,0.0,WeatherDisplay:10.37,2013-02-01 05:49:00,
2013-01-31 21:54:00,52.2,44.8,30.18,WSW,248,0.0,0.0,76,0.00,CLR,,0.00,0.0,WeatherDisplay:10.37,2013-02-01 05:54:00,
2013-01-31 21:59:00,52.0,44.6,30.18,WSW,248,0.0,0.0,76,0.00,CLR,,0.00,0.0,WeatherDisplay:10.37,2013-02-01 05:59:00,
2013-01-31 22:04:00,51.8,44.5,30.18,WSW,248,0.0,0.0,76,0.00,CLR,,0.00,0.0,WeatherDisplay:10.37,2013-02-01 06:04:00,
2013-01-31 22:10:00,52.0,44.6,30.18,WSW,248,0.0,0.0,76,0.00,CLR,,0.00,0.0,WeatherDisplay:10.37,2013-02-01 06:10:00,
2013-01-31 22:15:00,51.6,44.3,30.18,WSW,248,0.0,0.0,76,0.00,CLR,,0.00,0.0,WeatherDisplay:10.37,2013-02-01 06:15:00,
2013-01-31 22:20:00,51.6,44.6,30.18,WSW,248,0.0,0.0,77,0.00,CLR,,0.00,0.0,WeatherDisplay:10.37,2013-02-01 06:20:00,
2013-01-31 22:25:00,51.4,44.5,30.18,WSW,248,0.0,0.0,77,0.00,CLR,,0.00,0.0,WeatherDisplay:10.37,2013-02-01 06:25:00,
2013-01-31 22:30:00,51.4,44.5,30.18,WSW,248,0.0,0.0,77,0.00,CLR,,0.00,0.0,WeatherDisplay:10.37,2013-02-01 06:30:00,
2013-01-31 22:35:00,51.3,44.3,30.18,WSW,248,0.0,0.0,77,0.00,CLR,,0.00,0.0,WeatherDisplay:10.37,2013-02-01 06:35:00,
2013-01-31 22:40:00,51.3,44.3,30.18,WSW,248,0.0,0.0,77,0.00,CLR,,0.00,0.0,WeatherDisplay:10.37,2013-02-01 06:40:00,
2013-01-31 22:46:00,51.3,44.6,30.18,WSW,248,0.0,0.0,78,0.00,CLR,,0.00,0.0,WeatherDisplay:10.37,2013-02-01 06:46:00,
2013-01-31 22:51:00,51.4,44.8,30.18,WSW,248,0.0,0.0,78,0.00,CLR,,0.00,0.0,WeatherDisplay:10.37,2013-02-01 06:51:00,
2013-01-31 22:56:00,51.6,45.0,30.18,WSW,248,0.0,0.0,78,0.00,CLR,,0.00,0.0,WeatherDisplay:10.37,2013-02-01 06:56:00,
2013-01-31 23:01:00,51.6,45.0,30.18,WSW,248,0.0,0.0,78,0.00,CLR,,0.00,0.0,WeatherDisplay:10.37,2013-02-01 07:01:00,
2013-01-31 23:06:00,51.6,44.6,30.17,WSW,248,0.0,0.0,77,0.00,CLR,,0.00,0.0,WeatherDisplay:10.37,2013-02-01 07:06:00,
2013-01-31 23:11:00,51.6,44.6,30.17,WSW,248,0.0,0.0,77,0.00,CLR,,0.00,0.0,WeatherDisplay:10.37,2013-02-01 07:11:00,
2013-01-31 23:16:00,51.4,44.5,30.17,WSW,248,0.0,0.0,77,0.00,CLR,,0.00,0.0,WeatherDisplay:10.37,2013-02-01 07:16:00,
2013-01-31 23:22:00,51.3,44.3,30.17,WSW,248,0.0,0.0,77,0.00,CLR,,0.00,0.0,WeatherDisplay:10.37,2013-02-01 07:22:00,
2013-01-31 23:27:00,51.3,44.3,30.18,WSW,248,0.0,0.0,77,0.00,CLR,,0.00,0.0,WeatherDisplay:10.37,2013-02-01 07:27:00,
2013-01-31 23:32:00,50.7,44.1,30.18,WSW,248,0.0,0.0,78,0.00,CLR,,0.00,0.0,WeatherDisplay:10.37,2013-02-01 07:32:00,
2013-01-31 23:37:00,50.7,44.1,30.18,WSW,248,0.0,0.0,78,0.00,CLR,,0.00,0.0,WeatherDisplay:10.37,2013-02-01 07:37:00,
2013-01-31 23:42:00,50.7,44.4,30.18,WSW,248,0.0,0.0,79,0.00,CLR,,0.00,0.0,WeatherDisplay:10.37,2013-02-01 07:42:00,
2013-01-31 23:47:00,50.9,44.6,30.18,WSW,248,0.0,0.0,79,0.00,CLR,,0.00,0.0,WeatherDisplay:10.37,2013-02-01 07:47:00,
2013-01-31 23:52:00,51.3,45.0,30.18,WSW,248,0.0,0.0,79,0.00,CLR,,0.00,0.0,WeatherDisplay:10.37,2013-02-01 07:52:00,
2013-01-31 23:58:00,51.3,45.0,30.18,WSW,248,0.0,0.0,79,0.00,CLR,,0.00,0.0,WeatherDisplay:10.37,2013-02-01 07:58:00,